Other Public Products
Issued by NWS Grand Forks, ND

Home | Current Version | Previous Version | Graphics & Text | Print | Product List | Glossary On
Versions: 1 2 3 4 5 6 7 8 9 10 11 12 13 14 15 16 17 18 19 20 21 22 23 24 25 26 27 28 29 30 31 32 33 34 35 36 37 38 39 40 41 42 43 44 45 46 47 48 49 50
000
FPUS83 KFGF 231731
OPUFGF
PRAIRIE TO PINES WEATHER ROUNDUP
NATIONAL WEATHER SERVICE EASTERN NORTH DAKOTA/GRAND FORKS ND
1200 PM CDT TUE MAY 23 2017

 **SATELLITE DATA USED TO AUGMENT SKY COVER AT AUTOMATED STATIONS**
 *****  WEATHER ACROSS EASTERN NORTH DAKOTA  *****

CITY           SKY/WX    TMP DP  RH WIND       PRES   REMARKS
GRAND FORKS    CLOUDY    56  44  64 NE20      30.01F
GRAND FORKS AF CLOUDY    55  42  62 NE18      30.02S
GRAND CITY NWS NOT AVBL
BUXTON           N/A     52  46  79 N17G29      N/A
DEVILS LAKE    FAIR      59  40  49 NE23G29   30.07F
FARGO          CLOUDY    54  48  80 N17G25    29.96S
WAHPETON ARPT  CLOUDY    52  45  76 N17G23    29.93S
$$

 *****  WEATHER ACROSS CENTRAL AND WESTERN NORTH DAKOTA  *****

CITY           SKY/WX    TMP DP  RH WIND       PRES   REMARKS
JAMESTOWN      CLOUDY    52  43  71 NE20G30   30.02S
BISMARCK       FAIR      61  36  39 N24G33    30.09S
MINOT          FAIR      63  37  38 N13G18    30.12F
MINOT AFB      FAIR      62  36  38 N10       30.11F
GARRISON         N/A     59  35  40 N12G25    30.11F
WILLISTON      FAIR      65  35  33 VRB3      30.15F
DICKINSON      FAIR      59  35  40 N14G22    30.12F
HETTINGER      FAIR      61  35  37 N16G24    30.13F
$$

 *****  OTHER OBSERVATIONS NORTHEAST NORTH DAKOTA  *****

CITY           SKY/WX    TMP DP  RH WIND       PRES   REMARKS
WALHALLA       NOT AVBL
LANGDON        PTSUNNY   59  41  51 NE21G29   30.07S
CAVALIER       PTSUNNY   61  45  55 NE14G26   30.04S
GRAFTON        PTSUNNY   59  45  58 NE20G26   30.03F
CANDO          NOT AVBL
FORT TOTTEN      N/A     56  40  55 NE8       29.95S
ROLLA          FAIR      61  34  36 NE18G28   30.10F
RUGBY          NOT AVBL
 ***** THE ABOVE OBSERVATIONS ARE NON NWS ARE NOT QUALITY
        CONTROLLED AND MAY MIS-REPORT RAIN FOR SNOW...
$$

 *****  OTHER OBSERVATIONS SOUTHEAST NORTH DAKOTA *****

CITY           SKY/WX    TMP DP  RH WIND       PRES   REMARKS
COOPERSTOWN    CLOUDY    52  45  76 NE18G26   30.03S
VALLEY CITY    CLOUDY    48  48 100 N17G25    30.02S
OAKES          NOT AVBL
GWINNER        CLOUDY    48  46  93 MISG      29.97S FOG
BUFFALO          N/A     49  41  73 E16         N/A
WYNDMERE         N/A     50  48  93 N16         N/A
 ***** THE ABOVE OBSERVATIONS ARE NON NWS ARE NOT QUALITY
       CONTROLLED AND MAY MIS-REPORT RAIN FOR SNOW...
$$

  *****  WEATHER ACROSS NORTHERN MINNESOTA  *****

CITY           SKY/WX    TMP DP  RH WIND       PRES   REMARKS
FLAG ISLAND    FAIR      55  37  50 NE15G26   30.01S
WARROAD        FAIR      55  45  67 NE13G23   30.02S
ROSEAU         FAIR      59  46  63 NE20G26   30.01S
HALLOCK        PTSUNNY   61  43  51 NE14G28   30.02S
THF RVR FALLS  CLOUDY    52  43  71 NE17      30.00S
HALSTAD          N/A     52  46  80 N22         N/A
FOSSTON        CLOUDY    48  46  93 NE13G18   29.97S
BAUDETTE       CLOUDY    53  43  68 NE15      29.99S
WASKISH        CLOUDY    50  45  81 NE8G20    29.96S
CROOKSTON      CLOUDY    52  45  76 NE15      30.01S
$$
  *****  WEATHER ACROSS CENTRAL AND WEST MINNESOTA  *****

CITY           SKY/WX    TMP DP  RH WIND       PRES   REMARKS
BEMIDJI        CLOUDY    48  45  87 N9        29.94S
PARK RAPIDS    LGT RAIN  53  40  61 NE10      29.90S
WADENA         CLOUDY    54  45  71 N9        29.89S
DETROIT LAKES  CLOUDY    52  45  76 NE12G18   29.93S
MOORHEAD       CLOUDY    52  45  76 N20       29.96S
FERGUS FALLS   LGT RAIN  52  48  87 N9        29.90S
ELBOW LAKE     CLOUDY    53  43  69 E10       29.89S
MORRIS MN      LGT RAIN  52  48  87 N12       29.88S
STAPLES        PTSUNNY   54  41  62 N8        29.88F
WHEATON        LGT RAIN  52  46  82 NW15G22   29.92S
$$
  *****  WEATHER ELSEWHERE ACROSS MINNESOTA  *****

CITY           SKY/WX    TMP DP  RH WIND       PRES   REMARKS
DULUTH         CLOUDY    51  46  83 E10       29.88S
INTRNTL FALLS  CLOUDY    50  43  77 NE13G22   29.96S
ELY            DRIZZLE   48  46  93 N6        29.91S
CLOQUET        CLOUDY    52  43  71 E7        29.88S
BRAINERD       CLOUDY    54  43  66 N10       29.88S
HIBBING        CLOUDY    52  45  77 N10       29.89S
ALEXANDRIA     CLOUDY    52  45  77 N13       29.88F
SAINT CLOUD    CLOUDY    54  47  77 N7        29.85S
MINNEAPOLIS    PTSUNNY   58  43  57 E10G16    29.82F
$$

  *****  WEATHER ACROSS SOUTH DAKOTA  *****

CITY           SKY/WX    TMP DP  RH WIND       PRES   REMARKS
SIOUX FALLS    LGT RAIN  52  47  83 N9        29.89F
BROOKINGS      CLOUDY    51  45  79 N15       29.89F
WATERTOWN      CLOUDY    49  45  86 N18       29.90S
HURON          CLOUDY    52  45  77 N20G26    29.95S
SISSETON         N/A     50  47  89 N22       29.92S
ABERDEEN       CLOUDY    52  41  66 N17G26    29.98F
MITCHELL       CLOUDY    53  44  71 N18       29.95S
PIERRE         LGT RAIN  54  39  57 NE21      30.03F
MOBRIDGE       CLOUDY    55  37  50 N18G29    30.03R
RAPID CITY     FAIR      58  37  45 N20G26    30.13F
$$

  *****  SOME WEATHER IN NEARBY STATES *****

CITY           SKY/WX    TMP DP  RH WIND       PRES   REMARKS
GLASGOW MT     FAIR      66  35  31 VRB3      30.12F
GREAT FALLS MT FAIR      70  44  39 S13       30.05F
CHEYENNE WY    CLOUDY    48  33  56 N15G23    30.20F
SCOTTSBLUFF NE CLOUDY    55  35  47 N17G28    30.14F
OMAHA NE       CLOUDY    56  44  64 NW15G23   29.89F
DES MOINES IA  CLOUDY    60  45  57 NW14      29.81F
DAVENPORT IA   FAIR      60  53  77 VRB3      29.77F
CHICAGO IL     CLOUDY    61  53  75 SW8       29.78F
EAU CLAIRE WI  LGT RAIN  52  48  86 NE7       29.80F
LA CROSSE WI   CLOUDY    58  53  84 NW8       29.75F
$$

  *****  SOME NATIONAL WEATHER *****

CITY           SKY/WX    TMP DP  RH WIND       PRES   REMARKS
LA GUARDIA NY  CLOUDY    66  48  52 NE5       29.92F
RALEIGH NC     CLOUDY    71  67  87 E6        29.82F
ATLANTA GA     LGT RAIN  67  65  93 CALM      29.78F
NEW ORLEANS LA PTSUNNY   81  69  67 W9        29.78S
OKLAHOMA CITY  CLOUDY    59  51  75 N20       29.96S
ALBUQUERQUE NM FAIR      64  39  39 VRB5      30.17S
SALT LAKE CITY PTSUNNY   72  41  32 S6        30.17F
LOS ANGELES CA CLOUDY    65  58  78 SW15      29.95R FOG
BOISE ID       FAIR      73  44  35 SE6       30.12S
SEATTLE WA     FAIR      69  56  62 W6        30.02F
$$

*** WEATHER ACROSS MANITOBA...SASKATCHEWAN AND ONTARIO ***
                ***ONTARIO***

CITY           SKY/WX    TMP DP  RH WIND       PRES   REMARKS
GERALDTON      CLOUDY    45  39  81 N8        29.94S
THUNDER BAY    CLOUDY    54  45  71 N9        29.90S
SIOUX LOOKOUT  PTSUNNY   55  41  58 VRB3      30.00S
TORONTO        PTSUNNY   70  54  56 W13       29.84F
BIG TROUT LK   SUNNY     48  25  40 S7        30.10F
PICKLE LAKE    MOSUNNY   55  27  33 NE10G17   30.02S
DRYDEN         CLOUDY    55  39  54 NE15G25   30.00S
KENORA         PTSUNNY   57  39  51 NE17G23   30.03S
$$
                *** MANITOBA***

CITY           SKY/WX    TMP DP  RH WIND       PRES   REMARKS
BRANDON        SUNNY     64  34  32 VRB8G17   30.11F
DAUPHIN        SUNNY     66  34  30 VRB6      30.10F
ISLAND LAKE    MOSUNNY   63  30  29 W6        30.09F
PILOT MOUND      N/A     59  34  38 NE14G21     N/A
THE PAS        PTSUNNY   72  34  25 S15       30.01F
THOMPSON       PTSUNNY   66  36  32 S8G17     29.99F
WINNIPEG       MOSUNNY   63  39  42 NE16G25   30.08S
LYNN LAKE      MOSUNNY   66  36  32 S13G22    29.85F
CHURCHILL      PTSUNNY   46  36  66 S15       29.99F
GILLAM         MOSUNNY   66  37  34 S10G17    30.04F
$$
                ***SASKATCHEWAN***

CITY           SKY/WX    TMP DP  RH WIND       PRES   REMARKS
ESTEVAN        MOSUNNY   63  34  34 VRB2      30.14F
KINDERSLEY     PTSUNNY   72  30  21 S24       29.94F
LLOYDMINSTER   PTSUNNY   70  41  35 S25       29.82F
PRINCE ALBERT  PTSUNNY   72  36  26 SW15G22   29.95F
REGINA         MOSUNNY   68  28  22 SW3       30.07F
YORKTON        SUNNY     64  32  29 SW6       30.09F
N. BATTLEFORD  MOSUNNY   70  36  28 S16G22    29.93F


USA.gov is the U.S. government's official web portal to all federal, state and local government web resources and services.